GLO1035 SBGL-SBBE

Flight info

Callsign GLO1035
Flight time 3h 17m
Altitude FL390
Route EDNAM DCT DEJAN DCT BHZ UZ3 EKUPO DCT IROMU
Aircraft B738/M-S/N

Departure

Time 2026-05-04 14:41
Airport Rio Galeão – Tom Jobim International Airport (SBGL)

Arrival

Time 2026-05-04 17:58
Airport Val de Cans/Júlio Cezar Ribeiro International Airport (SBBE)
Time Latitude Longitude Altitude Speed Heading
2026-05-04 14:23 -22.81250 -43.25199 36 ft 0 kts 28°
2026-05-04 14:26 -22.81256 -43.25202 36 ft 2 kts 28°
2026-05-04 14:26 -22.81270 -43.25210 36 ft 3 kts 28°
2026-05-04 14:26 -22.81286 -43.25219 36 ft 3 kts 28°
2026-05-04 14:27 -22.81304 -43.25230 36 ft 3 kts 28°
2026-05-04 14:27 -22.81322 -43.25240 36 ft 3 kts 28°
2026-05-04 14:27 -22.81328 -43.25244 36 ft 0 kts 28°
2026-05-04 14:27 -22.81327 -43.25243 36 ft 1 kts 28°
2026-05-04 14:28 -22.81322 -43.25238 36 ft 1 kts 50°
2026-05-04 14:28 -22.81320 -43.25227 36 ft 2 kts 84°
2026-05-04 14:28 -22.81320 -43.25224 36 ft 2 kts 96°
2026-05-04 14:28 -22.81339 -43.25195 36 ft 4 kts 127°
2026-05-04 14:29 -22.81390 -43.25132 36 ft 7 kts 151°
2026-05-04 14:29 -22.81480 -43.25162 36 ft 9 kts 214°
2026-05-04 14:30 -22.81533 -43.25202 36 ft 10 kts 216°
2026-05-04 14:30 -22.81598 -43.25252 36 ft 12 kts 216°
2026-05-04 14:30 -22.81710 -43.25339 36 ft 8 kts 207°
2026-05-04 14:31 -22.81756 -43.25334 36 ft 6 kts 136°
2026-05-04 14:31 -22.81791 -43.25279 36 ft 3 kts 124°
2026-05-04 14:32 -22.81792 -43.25277 36 ft 0 kts 124°
2026-05-04 14:32 -22.81793 -43.25277 36 ft 0 kts 124°
2026-05-04 14:32 -22.81793 -43.25276 36 ft 0 kts 124°
2026-05-04 14:33 -22.81794 -43.25275 36 ft 0 kts 124°
2026-05-04 14:34 -22.81794 -43.25274 36 ft 0 kts 124°
2026-05-04 14:35 -22.81795 -43.25274 36 ft 0 kts 124°
2026-05-04 14:35 -22.81798 -43.25268 36 ft 2 kts 124°
2026-05-04 14:35 -22.81809 -43.25252 36 ft 4 kts 124°
2026-05-04 14:35 -22.81826 -43.25225 36 ft 5 kts 124°
2026-05-04 14:36 -22.81852 -43.25185 36 ft 7 kts 125°
2026-05-04 14:36 -22.81883 -43.25137 36 ft 9 kts 125°
2026-05-04 14:36 -22.81920 -43.25080 36 ft 10 kts 126°
2026-05-04 14:36 -22.81962 -43.25016 36 ft 11 kts 126°
2026-05-04 14:37 -22.82010 -43.24943 36 ft 12 kts 126°
2026-05-04 14:37 -22.82061 -43.24866 36 ft 13 kts 125°
2026-05-04 14:37 -22.82116 -43.24783 36 ft 14 kts 125°
2026-05-04 14:37 -22.82175 -43.24692 36 ft 15 kts 125°
2026-05-04 14:38 -22.82238 -43.24600 36 ft 16 kts 126°
2026-05-04 14:38 -22.82303 -43.24502 36 ft 16 kts 126°
2026-05-04 14:38 -22.82369 -43.24403 36 ft 17 kts 126°
2026-05-04 14:38 -22.82436 -43.24302 36 ft 17 kts 125°
2026-05-04 14:39 -22.82503 -43.24199 36 ft 18 kts 125°
2026-05-04 14:39 -22.82565 -43.24105 36 ft 15 kts 125°
2026-05-04 14:39 -22.82625 -43.24013 36 ft 15 kts 125°
2026-05-04 14:40 -22.82750 -43.23818 36 ft 15 kts 125°
2026-05-04 14:40 -22.82824 -43.23797 36 ft 11 kts 213°
2026-05-04 14:40 -22.82881 -43.23857 36 ft 12 kts 247°
2026-05-04 14:40 -22.82863 -43.23928 36 ft 13 kts 307°
2026-05-04 14:41 -22.82678 -43.24210 36 ft 85 kts 306°
2026-05-04 14:41 -22.82195 -43.24944 36 ft 152 kts 305°
2026-05-04 14:41 -22.81078 -43.26905 1515 ft 143 kts 297°
2026-05-04 14:42 -22.80237 -43.29036 2428 ft 169 kts 292°
2026-05-04 14:42 -22.79746 -43.30270 2784 ft 192 kts 293°
2026-05-04 14:42 -22.79171 -43.31679 3300 ft 215 kts 293°
2026-05-04 14:43 -22.78557 -43.33143 3904 ft 236 kts 296°
2026-05-04 14:43 -22.77896 -43.34682 4408 ft 260 kts 296°
2026-05-04 14:43 -22.77093 -43.36500 5271 ft 269 kts 297°
2026-05-04 14:43 -22.76287 -43.38294 6162 ft 268 kts 297°
2026-05-04 14:44 -22.75457 -43.40131 6642 ft 268 kts 297°
2026-05-04 14:44 -22.74668 -43.41869 6901 ft 266 kts 297°
2026-05-04 14:44 -22.73853 -43.43658 6991 ft 267 kts 297°
2026-05-04 14:44 -22.72976 -43.45282 6982 ft 265 kts 309°
2026-05-04 14:45 -22.71408 -43.46467 7005 ft 266 kts 339°
2026-05-04 14:45 -22.69580 -43.46670 7010 ft 268 kts
2026-05-04 14:45 -22.67770 -43.46148 7352 ft 274 kts 19°
2026-05-04 14:45 -22.66440 -43.45530 8192 ft 270 kts 22°
2026-05-04 14:46 -22.65054 -43.44842 9114 ft 272 kts 24°
2026-05-04 14:46 -22.63687 -43.44164 9786 ft 277 kts 24°
2026-05-04 14:46 -22.62110 -43.43383 10690 ft 279 kts 24°
2026-05-04 14:46 -22.60464 -43.42569 11463 ft 285 kts 24°
2026-05-04 14:47 -22.58686 -43.41698 12381 ft 287 kts 22°
2026-05-04 14:47 -22.56838 -43.40806 13146 ft 295 kts 22°
2026-05-04 14:47 -22.54961 -43.39895 14177 ft 291 kts 21°
2026-05-04 14:47 -22.53139 -43.38999 15659 ft 285 kts 20°
2026-05-04 14:48 -22.51369 -43.38151 17137 ft 276 kts 19°
2026-05-04 14:48 -22.49650 -43.37329 18626 ft 263 kts 19°
2026-05-04 14:48 -22.48037 -43.36546 20015 ft 248 kts 18°
2026-05-04 14:48 -22.46519 -43.35814 20985 ft 235 kts 17°
2026-05-04 14:49 -22.45004 -43.35091 21365 ft 247 kts 17°
2026-05-04 14:49 -22.43410 -43.34320 21819 ft 258 kts 17°
2026-05-04 14:49 -22.41724 -43.33516 22348 ft 272 kts 16°
2026-05-04 14:49 -22.39892 -43.32966 22850 ft 275 kts 357°
2026-05-04 14:50 -22.37987 -43.33048 23391 ft 279 kts 345°
2026-05-04 14:50 -22.36019 -43.33357 23914 ft 291 kts 343°
2026-05-04 14:50 -22.33983 -43.33711 24305 ft 308 kts 343°
2026-05-04 14:50 -22.31807 -43.34067 24544 ft 331 kts 345°
2026-05-04 14:51 -22.29460 -43.34432 24784 ft 352 kts 345°
2026-05-04 14:51 -22.26958 -43.34848 25020 ft 372 kts 345°
2026-05-04 14:51 -22.24334 -43.35279 25260 ft 388 kts 345°
2026-05-04 14:51 -22.21682 -43.35690 26234 ft 377 kts 345°
2026-05-04 14:52 -22.19173 -43.36116 27713 ft 355 kts 343°
2026-05-04 14:52 -22.16837 -43.36495 29157 ft 332 kts 342°
2026-05-04 14:52 -22.14640 -43.36836 30612 ft 303 kts 340°
2026-05-04 14:52 -22.12679 -43.37166 32022 ft 269 kts 338°
2026-05-04 14:53 -22.10910 -43.37457 32906 ft 255 kts 337°
2026-05-04 14:53 -22.09137 -43.37740 33103 ft 263 kts 338°
2026-05-04 14:53 -22.07297 -43.38032 33239 ft 273 kts 338°
2026-05-04 14:53 -22.05385 -43.38352 33385 ft 285 kts 338°
2026-05-04 14:54 -22.03389 -43.38670 33531 ft 297 kts 339°
2026-05-04 14:54 -22.01289 -43.39009 33675 ft 308 kts 339°
2026-05-04 14:54 -21.99146 -43.39358 33812 ft 320 kts 340°
2026-05-04 14:54 -21.96902 -43.39724 33947 ft 332 kts 340°
2026-05-04 14:55 -21.94589 -43.40105 34079 ft 344 kts 340°
2026-05-04 14:55 -21.92186 -43.40506 34209 ft 355 kts 341°
2026-05-04 14:55 -21.89703 -43.40918 34369 ft 365 kts 341°
2026-05-04 14:55 -21.87160 -43.41339 34489 ft 376 kts 341°
2026-05-04 14:56 -21.84553 -43.41773 34606 ft 385 kts 340°
2026-05-04 14:56 -21.82003 -43.42507 34710 ft 381 kts 329°
2026-05-04 14:56 -21.79597 -43.43716 34948 ft 380 kts 324°
2026-05-04 14:56 -21.77301 -43.45041 35504 ft 375 kts 322°
2026-05-04 14:57 -21.75062 -43.46415 36006 ft 372 kts 321°
2026-05-04 14:57 -21.72855 -43.47796 36432 ft 370 kts 321°
2026-05-04 14:57 -21.70610 -43.49197 36856 ft 369 kts 321°
2026-05-04 14:57 -21.68383 -43.50588 37237 ft 368 kts 321°
2026-05-04 14:58 -21.66185 -43.51967 37631 ft 366 kts 321°
2026-05-04 14:58 -21.64043 -43.53304 38267 ft 357 kts 321°
2026-05-04 14:58 -21.61873 -43.54661 38603 ft 357 kts 321°
2026-05-04 14:58 -21.59738 -43.55994 38886 ft 357 kts 321°
2026-05-04 14:59 -21.57602 -43.57342 39167 ft 357 kts 321°
2026-05-04 14:59 -21.56115 -43.58305 39237 ft 361 kts 320°
2026-05-04 14:59 -21.51775 -43.61123 39260 ft 374 kts 321°
2026-05-04 15:00 -21.50076 -43.62222 39277 ft 379 kts 321°
2026-05-04 15:00 -21.45437 -43.65191 39265 ft 390 kts 321°
2026-05-04 15:01 -21.40686 -43.68225 39267 ft 401 kts 321°
2026-05-04 15:01 -21.38297 -43.69774 39288 ft 404 kts 322°
2026-05-04 15:01 -21.33459 -43.72857 39279 ft 404 kts 322°
2026-05-04 15:02 -21.28652 -43.75928 39278 ft 404 kts 322°
2026-05-04 15:02 -21.23829 -43.79018 39278 ft 405 kts 323°
2026-05-04 15:03 -21.19003 -43.82110 39278 ft 405 kts 322°
2026-05-04 15:03 -21.14162 -43.85191 39268 ft 406 kts 326°
2026-05-04 15:04 -21.09341 -43.88265 39284 ft 404 kts 322°
2026-05-04 15:04 -21.04488 -43.91352 39283 ft 407 kts 322°
2026-05-04 15:05 -20.99625 -43.94434 39283 ft 407 kts 322°
2026-05-04 15:05 -20.94793 -43.97493 39283 ft 406 kts 322°
2026-05-04 15:06 -20.89921 -44.00574 39269 ft 407 kts 322°
2026-05-04 15:07 -20.82807 -44.05068 39264 ft 412 kts 322°
2026-05-04 15:07 -20.77555 -44.07618 39266 ft 429 kts 339°
2026-05-04 15:07 -20.74561 -44.08036 39268 ft 441 kts 348°
2026-05-04 15:08 -20.71485 -44.08067 39266 ft 448 kts 352°
2026-05-04 15:08 -20.65228 -44.07666 39265 ft 452 kts 355°
2026-05-04 15:09 -20.58986 -44.07102 39262 ft 446 kts 355°
2026-05-04 15:09 -20.52854 -44.06548 39263 ft 445 kts 355°
2026-05-04 15:10 -20.43607 -44.05689 39263 ft 446 kts 356°
2026-05-04 15:11 -20.34314 -44.04829 39263 ft 448 kts 356°
2026-05-04 15:11 -20.28142 -44.04262 39249 ft 437 kts 356°
2026-05-04 15:12 -20.22209 -44.03733 39248 ft 427 kts 356°
2026-05-04 15:12 -20.16271 -44.03227 39248 ft 428 kts 356°
2026-05-04 15:13 -20.10357 -44.02730 39248 ft 429 kts 356°
2026-05-04 15:13 -20.04402 -44.02188 39248 ft 429 kts 356°
2026-05-04 15:14 -19.98437 -44.01644 39257 ft 434 kts 356°
2026-05-04 15:14 -19.92384 -44.01102 39257 ft 439 kts 356°
2026-05-04 15:15 -19.86318 -44.00574 39257 ft 437 kts 355°
2026-05-04 15:15 -19.83365 -44.00664 39265 ft 424 kts 345°
2026-05-04 15:15 -19.80451 -44.01181 39258 ft 422 kts 342°
2026-05-04 15:16 -19.71880 -44.03091 39241 ft 428 kts 340°
2026-05-04 15:17 -19.63039 -44.05103 39238 ft 438 kts 340°
2026-05-04 15:17 -19.54099 -44.07151 39239 ft 436 kts 339°
2026-05-04 15:18 -19.48176 -44.08525 39238 ft 438 kts 340°
2026-05-04 15:19 -19.39235 -44.10612 39221 ft 439 kts 339°
2026-05-04 15:19 -19.30289 -44.12698 39221 ft 440 kts 339°
2026-05-04 15:20 -19.24319 -44.14073 39221 ft 440 kts 340°
2026-05-04 15:20 -19.18378 -44.15464 39221 ft 441 kts 340°
2026-05-04 15:21 -19.12377 -44.16861 39206 ft 443 kts 340°
2026-05-04 15:22 -19.03309 -44.18959 39198 ft 445 kts 340°
2026-05-04 15:22 -18.94276 -44.21051 39198 ft 445 kts 340°
2026-05-04 15:23 -18.88570 -44.22391 39197 ft 448 kts 340°
2026-05-04 15:23 -18.82347 -44.23856 39196 ft 452 kts 339°
2026-05-04 15:24 -18.70209 -44.26893 39197 ft 451 kts 339°
2026-05-04 15:25 -18.64067 -44.28461 39196 ft 452 kts 339°
2026-05-04 15:26 -18.54970 -44.30781 39180 ft 447 kts 339°
2026-05-04 15:26 -18.45859 -44.33077 39180 ft 450 kts 339°
2026-05-04 15:27 -18.36754 -44.35368 39180 ft 450 kts 339°
2026-05-04 15:28 -18.27658 -44.37687 39168 ft 448 kts 339°
2026-05-04 15:29 -18.18596 -44.40005 39167 ft 449 kts 339°
2026-05-04 15:30 -17.97383 -44.45519 39178 ft 450 kts 339°
2026-05-04 15:31 -17.88293 -44.47910 39178 ft 451 kts 339°
2026-05-04 15:32 -17.73078 -44.51986 39181 ft 457 kts 339°
2026-05-04 15:34 -17.57547 -44.55984 39180 ft 462 kts 340°
2026-05-04 15:34 -17.48188 -44.58296 39180 ft 462 kts 340°
2026-05-04 15:35 -17.38905 -44.60593 39182 ft 451 kts 340°
2026-05-04 15:36 -17.29724 -44.62867 39182 ft 454 kts 340°
2026-05-04 15:36 -17.23605 -44.64375 39181 ft 454 kts 340°
2026-05-04 15:37 -17.17482 -44.65883 39163 ft 445 kts 341°
2026-05-04 15:37 -17.11541 -44.67344 39161 ft 435 kts 341°
2026-05-04 15:38 -17.05680 -44.68785 39162 ft 435 kts 341°
2026-05-04 15:38 -16.99793 -44.70239 39162 ft 437 kts 341°
2026-05-04 15:39 -16.93886 -44.71690 39161 ft 437 kts 341°
2026-05-04 15:40 -16.86142 -44.73587 39146 ft 430 kts 341°
2026-05-04 15:40 -16.80512 -44.75044 39147 ft 431 kts 341°
2026-05-04 15:41 -16.74686 -44.76552 39147 ft 431 kts 341°
2026-05-04 15:41 -16.68864 -44.78027 39146 ft 432 kts 342°
2026-05-04 15:42 -16.63058 -44.79504 39153 ft 431 kts 341°
2026-05-04 15:42 -16.57227 -44.80956 39147 ft 432 kts 341°
2026-05-04 15:43 -16.51389 -44.82428 39147 ft 433 kts 341°
2026-05-04 15:43 -16.45539 -44.83867 39146 ft 433 kts 342°
2026-05-04 15:44 -16.39691 -44.85313 39147 ft 434 kts 342°
2026-05-04 15:44 -16.33858 -44.86766 39147 ft 430 kts 342°
2026-05-04 15:45 -16.28053 -44.88213 39147 ft 430 kts 342°
2026-05-04 15:45 -16.22246 -44.89670 39147 ft 431 kts 342°
2026-05-04 15:46 -16.16439 -44.91105 39147 ft 431 kts 342°
2026-05-04 15:46 -16.10598 -44.92542 39147 ft 432 kts 342°
2026-05-04 15:47 -16.04764 -44.93999 39127 ft 429 kts 343°
2026-05-04 15:47 -15.99013 -44.95426 39126 ft 428 kts 343°
2026-05-04 15:48 -15.93197 -44.96860 39126 ft 429 kts 343°
2026-05-04 15:48 -15.84519 -44.98996 39126 ft 429 kts 343°
2026-05-04 15:49 -15.78722 -45.00429 39111 ft 431 kts 341°
2026-05-04 15:49 -15.72837 -45.01883 39121 ft 442 kts 341°
2026-05-04 15:50 -15.66819 -45.03368 39122 ft 452 kts 341°
2026-05-04 15:50 -15.61264 -45.04736 39121 ft 460 kts 342°
2026-05-04 15:51 -15.55029 -45.06267 39121 ft 459 kts 342°
2026-05-04 15:51 -15.48835 -45.07805 39123 ft 457 kts 342°
2026-05-04 15:52 -15.42661 -45.09312 39123 ft 457 kts 342°
2026-05-04 15:52 -15.36491 -45.10836 39123 ft 458 kts 342°
2026-05-04 15:53 -15.30302 -45.12362 39123 ft 458 kts 341°
2026-05-04 15:53 -15.24112 -45.13893 39123 ft 459 kts 342°
2026-05-04 15:54 -15.17852 -45.15435 39129 ft 469 kts 342°
2026-05-04 15:54 -15.11494 -45.17005 39128 ft 470 kts 342°
2026-05-04 15:55 -15.05470 -45.18489 39128 ft 471 kts 342°
2026-05-04 15:55 -14.99125 -45.20048 39134 ft 470 kts 342°
2026-05-04 15:56 -14.92833 -45.21581 39135 ft 468 kts 342°
2026-05-04 15:56 -14.86546 -45.23125 39135 ft 470 kts 342°
2026-05-04 15:57 -14.80464 -45.24623 39135 ft 470 kts 342°
2026-05-04 15:57 -14.74121 -45.26183 39136 ft 470 kts 342°
2026-05-04 15:58 -14.67780 -45.27744 39136 ft 469 kts 342°
2026-05-04 15:58 -14.61442 -45.29300 39136 ft 469 kts 343°
2026-05-04 15:59 -14.55097 -45.30829 39136 ft 469 kts 342°
2026-05-04 15:59 -14.48772 -45.32374 39136 ft 470 kts 342°
2026-05-04 16:00 -14.42426 -45.33929 39135 ft 470 kts 342°
2026-05-04 16:00 -14.36083 -45.35487 39130 ft 468 kts 343°
2026-05-04 16:01 -14.29757 -45.37041 39130 ft 469 kts 343°
2026-05-04 16:01 -14.23419 -45.38599 39130 ft 469 kts 343°
2026-05-04 16:02 -14.17092 -45.40154 39130 ft 469 kts 343°
2026-05-04 16:03 -14.07594 -45.42496 39131 ft 468 kts 343°
2026-05-04 16:03 -14.01268 -45.44023 39132 ft 469 kts 343°
2026-05-04 16:04 -13.94928 -45.45569 39132 ft 470 kts 343°
2026-05-04 16:04 -13.85393 -45.47901 39132 ft 470 kts 343°
2026-05-04 16:05 -13.79056 -45.49453 39123 ft 469 kts 343°
2026-05-04 16:06 -13.69572 -45.51824 39121 ft 469 kts 343°
2026-05-04 16:07 -13.56902 -45.54926 39121 ft 469 kts 343°
2026-05-04 16:08 -13.44524 -45.57883 39111 ft 471 kts 344°
2026-05-04 16:09 -13.29634 -45.61454 39110 ft 471 kts 344°
2026-05-04 16:10 -13.16797 -45.64570 39106 ft 470 kts 344°
2026-05-04 16:11 -13.04070 -45.67656 39106 ft 470 kts 344°
2026-05-04 16:12 -12.85077 -45.72286 39105 ft 471 kts 345°
2026-05-04 16:13 -12.72337 -45.75347 39096 ft 470 kts 345°
2026-05-04 16:14 -12.59644 -45.78399 39095 ft 471 kts 345°
2026-05-04 16:16 -12.43735 -45.82223 39090 ft 471 kts 345°
2026-05-04 16:17 -12.27912 -45.86017 39091 ft 472 kts 345°
2026-05-04 16:18 -12.15159 -45.89075 39092 ft 473 kts 345°
2026-05-04 16:19 -11.99192 -45.92900 39091 ft 474 kts 345°
2026-05-04 16:20 -11.83329 -45.96695 39085 ft 474 kts 345°
2026-05-04 16:22 -11.68555 -46.00209 39087 ft 475 kts 345°
2026-05-04 16:23 -11.49320 -46.04803 39089 ft 473 kts 345°
2026-05-04 16:25 -11.30130 -46.09385 39090 ft 473 kts 345°
2026-05-04 16:26 -11.07746 -46.14717 39081 ft 474 kts 345°
2026-05-04 16:28 -10.91805 -46.18519 39075 ft 470 kts 345°
2026-05-04 16:29 -10.69542 -46.23800 39066 ft 471 kts 345°
2026-05-04 16:31 -10.53640 -46.27588 39060 ft 470 kts 345°
2026-05-04 16:32 -10.34577 -46.32105 39054 ft 471 kts 345°
2026-05-04 16:33 -10.21818 -46.35125 39055 ft 471 kts 345°
2026-05-04 16:34 -10.12265 -46.37388 39055 ft 472 kts 345°
2026-05-04 16:35 -9.93103 -46.41937 39060 ft 473 kts 345°
2026-05-04 16:36 -9.83516 -46.44196 39056 ft 473 kts 345°
2026-05-04 16:37 -9.75127 -46.46184 39056 ft 472 kts 345°
2026-05-04 16:38 -9.62337 -46.49210 39057 ft 473 kts 344°
2026-05-04 16:39 -9.46356 -46.53030 39051 ft 473 kts 344°
2026-05-04 16:40 -9.33545 -46.56091 39050 ft 474 kts 345°
2026-05-04 16:41 -9.17535 -46.59876 39053 ft 475 kts 345°
2026-05-04 16:43 -9.01487 -46.63646 39053 ft 475 kts 345°
2026-05-04 16:43 -8.91858 -46.65882 39055 ft 471 kts 344°
2026-05-04 16:45 -8.72694 -46.70379 39048 ft 471 kts 344°
2026-05-04 16:46 -8.57704 -46.73943 39047 ft 472 kts 345°
2026-05-04 16:47 -8.45515 -46.76799 39047 ft 473 kts 344°
2026-05-04 16:48 -8.32744 -46.79798 39047 ft 472 kts 344°
2026-05-04 16:49 -8.19947 -46.82794 39047 ft 474 kts 345°
2026-05-04 16:50 -8.07240 -46.85768 39044 ft 470 kts 344°
2026-05-04 16:51 -7.97697 -46.88003 39043 ft 470 kts 344°
2026-05-04 16:52 -7.85019 -46.90966 39029 ft 464 kts 345°
2026-05-04 16:53 -7.75674 -46.93147 39028 ft 463 kts 345°
2026-05-04 16:54 -7.63156 -46.96080 39028 ft 463 kts 344°
2026-05-04 16:55 -7.44446 -47.00450 39021 ft 461 kts 345°
2026-05-04 16:56 -7.28927 -47.04067 39019 ft 462 kts 344°
2026-05-04 16:57 -7.19479 -47.06271 39019 ft 462 kts 345°
2026-05-04 16:58 -7.08153 -47.08908 39019 ft 464 kts 345°
2026-05-04 17:00 -6.92249 -47.12599 39021 ft 466 kts 345°
2026-05-04 17:01 -6.77086 -47.16080 39021 ft 469 kts 345°
2026-05-04 17:02 -6.64394 -47.19000 39021 ft 468 kts 345°
2026-05-04 17:03 -6.56392 -47.20873 39022 ft 468 kts 345°
2026-05-04 17:03 -6.46710 -47.23135 39021 ft 470 kts 345°
2026-05-04 17:04 -6.34668 -47.25946 39021 ft 470 kts 345°
2026-05-04 17:05 -6.22956 -47.28679 39022 ft 467 kts 345°
2026-05-04 17:06 -6.13509 -47.30879 39023 ft 467 kts 345°
2026-05-04 17:07 -6.05087 -47.32838 39023 ft 467 kts 345°
2026-05-04 17:07 -5.98958 -47.34261 39025 ft 467 kts 345°
2026-05-04 17:08 -5.89328 -47.36475 39021 ft 468 kts 345°
2026-05-04 17:09 -5.82987 -47.37925 39021 ft 469 kts 345°
2026-05-04 17:09 -5.76627 -47.39385 39021 ft 469 kts 346°
2026-05-04 17:10 -5.60773 -47.43020 39023 ft 468 kts 345°
2026-05-04 17:11 -5.54474 -47.44478 39023 ft 467 kts 345°
2026-05-04 17:11 -5.48443 -47.46739 39024 ft 465 kts 334°
2026-05-04 17:12 -5.45485 -47.48113 39023 ft 465 kts 333°
2026-05-04 17:13 -5.31002 -47.55218 39023 ft 466 kts 332°
2026-05-04 17:14 -5.19389 -47.60975 39023 ft 467 kts 332°
2026-05-04 17:15 -5.10666 -47.65286 39032 ft 467 kts 332°
2026-05-04 17:16 -4.98995 -47.71079 39034 ft 468 kts 332°
2026-05-04 17:17 -4.87335 -47.76833 39034 ft 469 kts 332°
2026-05-04 17:18 -4.75661 -47.82627 39037 ft 468 kts 333°
2026-05-04 17:19 -4.64078 -47.88330 39038 ft 469 kts 332°
2026-05-04 17:20 -4.55412 -47.92616 39027 ft 468 kts 333°
2026-05-04 17:20 -4.46775 -47.96897 39042 ft 468 kts 333°
2026-05-04 17:21 -4.36016 -48.02199 39033 ft 468 kts 332°
2026-05-04 17:22 -4.32076 -48.04165 39035 ft 466 kts 332°
2026-05-04 17:23 -4.21796 -48.09233 39049 ft 467 kts 332°
2026-05-04 17:24 -4.12930 -48.13615 39034 ft 466 kts 332°
2026-05-04 17:25 -4.01847 -48.19069 39029 ft 466 kts 332°
2026-05-04 17:26 -3.90626 -48.24615 39029 ft 466 kts 332°
2026-05-04 17:27 -3.76069 -48.31796 39024 ft 466 kts 333°
2026-05-04 17:28 -3.64459 -48.37519 39022 ft 455 kts 332°
2026-05-04 17:29 -3.57443 -48.40975 38350 ft 428 kts 332°
2026-05-04 17:29 -3.47803 -48.44572 35632 ft 443 kts 353°
2026-05-04 17:30 -3.38555 -48.45361 33516 ft 443 kts 355°
2026-05-04 17:31 -3.32471 -48.45842 32436 ft 434 kts 355°
2026-05-04 17:31 -3.23585 -48.46521 30774 ft 426 kts 356°
2026-05-04 17:32 -3.17700 -48.46882 29790 ft 419 kts 356°
2026-05-04 17:33 -3.09077 -48.47411 28421 ft 412 kts 356°
2026-05-04 17:33 -3.06213 -48.47587 27962 ft 410 kts 356°
2026-05-04 17:34 -2.97780 -48.48105 26636 ft 403 kts 357°
2026-05-04 17:34 -2.94982 -48.48277 26204 ft 401 kts 357°
2026-05-04 17:35 -2.86768 -48.48768 24620 ft 391 kts 358°
2026-05-04 17:35 -2.81393 -48.49082 23492 ft 382 kts 358°
2026-05-04 17:35 -2.78779 -48.49234 22928 ft 377 kts 358°
2026-05-04 17:36 -2.76170 -48.49385 22364 ft 373 kts 358°
2026-05-04 17:36 -2.73596 -48.49536 21803 ft 369 kts 358°
2026-05-04 17:36 -2.71080 -48.49682 21257 ft 365 kts 358°
2026-05-04 17:36 -2.68565 -48.49829 20705 ft 361 kts 358°
2026-05-04 17:37 -2.66053 -48.49976 20177 ft 357 kts 359°
2026-05-04 17:37 -2.63611 -48.50122 19766 ft 350 kts 358°
2026-05-04 17:37 -2.61192 -48.50271 19328 ft 352 kts 358°
2026-05-04 17:37 -2.58766 -48.50419 18896 ft 348 kts 359°
2026-05-04 17:38 -2.56368 -48.50565 18480 ft 346 kts 359°
2026-05-04 17:38 -2.53978 -48.50710 18054 ft 343 kts 359°
2026-05-04 17:38 -2.51586 -48.50841 17624 ft 340 kts 360°
2026-05-04 17:38 -2.49241 -48.50961 17200 ft 338 kts 359°
2026-05-04 17:39 -2.44599 -48.51244 16349 ft 333 kts 360°
2026-05-04 17:39 -2.42305 -48.51384 15924 ft 330 kts 360°
2026-05-04 17:39 -2.41040 -48.51461 15688 ft 328 kts 360°
2026-05-04 17:40 -2.37788 -48.51660 15077 ft 325 kts
2026-05-04 17:40 -2.35523 -48.51800 14647 ft 322 kts
2026-05-04 17:40 -2.33282 -48.51936 14222 ft 325 kts
2026-05-04 17:40 -2.31037 -48.52073 13796 ft 323 kts
2026-05-04 17:41 -2.28791 -48.52210 13366 ft 319 kts
2026-05-04 17:41 -2.26601 -48.52344 12943 ft 317 kts
2026-05-04 17:41 -2.24406 -48.52477 12515 ft 314 kts
2026-05-04 17:41 -2.22245 -48.52609 12092 ft 312 kts
2026-05-04 17:42 -2.20091 -48.52740 11667 ft 311 kts
2026-05-04 17:42 -2.17946 -48.52871 11242 ft 309 kts
2026-05-04 17:42 -2.15801 -48.52997 10812 ft 305 kts
2026-05-04 17:42 -2.13717 -48.53113 10390 ft 302 kts
2026-05-04 17:43 -2.11624 -48.53219 9964 ft 300 kts
2026-05-04 17:43 -2.09539 -48.53322 9538 ft 299 kts
2026-05-04 17:43 -2.07476 -48.53443 9111 ft 296 kts
2026-05-04 17:43 -2.05436 -48.53552 8685 ft 292 kts
2026-05-04 17:44 -2.03425 -48.53673 8260 ft 290 kts
2026-05-04 17:44 -2.01423 -48.53795 7833 ft 289 kts
2026-05-04 17:44 -1.99429 -48.53917 7410 ft 288 kts
2026-05-04 17:44 -1.97443 -48.54037 6988 ft 287 kts
2026-05-04 17:45 -1.95451 -48.54162 6557 ft 289 kts 359°
2026-05-04 17:45 -1.93446 -48.54285 6134 ft 289 kts 359°
2026-05-04 17:45 -1.91503 -48.54401 5723 ft 289 kts 359°
2026-05-04 17:45 -1.89436 -48.54527 5282 ft 288 kts 359°
2026-05-04 17:46 -1.87439 -48.54652 4854 ft 286 kts 359°
2026-05-04 17:46 -1.85467 -48.54771 4432 ft 284 kts 359°
2026-05-04 17:46 -1.83506 -48.54889 4004 ft 282 kts 359°
2026-05-04 17:46 -1.81562 -48.55003 3581 ft 280 kts 358°
2026-05-04 17:47 -1.79628 -48.55120 3155 ft 277 kts 358°
2026-05-04 17:47 -1.77719 -48.55236 2730 ft 275 kts 358°
2026-05-04 17:47 -1.76116 -48.55333 2370 ft 273 kts 358°
2026-05-04 17:48 -1.75011 -48.55401 2120 ft 272 kts 358°
2026-05-04 17:48 -1.73140 -48.55513 1784 ft 268 kts 358°
2026-05-04 17:48 -1.71283 -48.55622 1713 ft 261 kts 358°
2026-05-04 17:48 -1.69527 -48.55728 1696 ft 254 kts 358°
2026-05-04 17:49 -1.67801 -48.55822 1694 ft 239 kts 358°
2026-05-04 17:49 -1.66217 -48.55906 1709 ft 222 kts 359°
2026-05-04 17:49 -1.64712 -48.55972 1700 ft 206 kts 359°
2026-05-04 17:49 -1.63359 -48.56051 1713 ft 187 kts 358°
2026-05-04 17:50 -1.62120 -48.56122 1673 ft 172 kts 359°
2026-05-04 17:50 -1.60997 -48.56174 1707 ft 150 kts 359°
2026-05-04 17:50 -1.60013 -48.56237 1675 ft 137 kts 356°
2026-05-04 17:50 -1.59109 -48.56476 1687 ft 128 kts 343°
2026-05-04 17:51 -1.58556 -48.56705 1739 ft 130 kts 339°
2026-05-04 17:51 -1.57803 -48.57040 1689 ft 138 kts 338°
2026-05-04 17:51 -1.56951 -48.57429 1685 ft 131 kts 338°
2026-05-04 17:51 -1.56135 -48.57801 1694 ft 129 kts 338°
2026-05-04 17:52 -1.55311 -48.58175 1703 ft 129 kts 338°
2026-05-04 17:52 -1.54495 -48.58546 1701 ft 129 kts 338°
2026-05-04 17:52 -1.53685 -48.58918 1700 ft 129 kts 337°
2026-05-04 17:52 -1.52878 -48.59296 1702 ft 129 kts 337°
2026-05-04 17:53 -1.52060 -48.59671 1701 ft 129 kts 338°
2026-05-04 17:53 -1.51241 -48.60015 1695 ft 128 kts 342°
2026-05-04 17:53 -1.50382 -48.60066 1678 ft 127 kts
2026-05-04 17:53 -1.49613 -48.59669 1727 ft 125 kts 36°
2026-05-04 17:54 -1.48975 -48.59060 1708 ft 125 kts 46°
2026-05-04 17:54 -1.48402 -48.58424 1699 ft 124 kts 49°
2026-05-04 17:54 -1.47828 -48.57777 1701 ft 125 kts 48°
2026-05-04 17:54 -1.47249 -48.57151 1701 ft 124 kts 47°
2026-05-04 17:55 -1.46644 -48.56510 1700 ft 125 kts 47°
2026-05-04 17:55 -1.46058 -48.55892 1701 ft 125 kts 47°
2026-05-04 17:55 -1.45458 -48.55261 1701 ft 125 kts 47°
2026-05-04 17:55 -1.45033 -48.54813 1701 ft 125 kts 47°
2026-05-04 17:56 -1.44259 -48.54001 1580 ft 125 kts 46°
2026-05-04 17:56 -1.43645 -48.53383 1408 ft 124 kts 45°
2026-05-04 17:56 -1.43041 -48.52777 1243 ft 124 kts 45°
2026-05-04 17:56 -1.42440 -48.52173 1079 ft 124 kts 45°
2026-05-04 17:57 -1.41833 -48.51560 915 ft 124 kts 45°
2026-05-04 17:57 -1.41232 -48.50949 751 ft 124 kts 45°
2026-05-04 17:57 -1.40622 -48.50336 586 ft 124 kts 45°
2026-05-04 17:57 -1.40012 -48.49722 421 ft 124 kts 45°
2026-05-04 17:58 -1.39421 -48.49121 260 ft 123 kts 45°
2026-05-04 17:58 -1.38816 -48.48510 107 ft 122 kts 45°
2026-05-04 17:58 -1.38239 -48.47945 62 ft 104 kts 45°
2026-05-04 17:58 -1.37888 -48.47572 62 ft 42 kts 44°
2026-05-04 17:59 -1.37783 -48.47471 62 ft 14 kts 44°
2026-05-04 17:59 -1.37709 -48.47396 62 ft 20 kts 46°
2026-05-04 17:59 -1.37465 -48.47145 62 ft 29 kts 46°
2026-05-04 18:00 -1.37342 -48.47019 62 ft 24 kts 46°
2026-05-04 18:00 -1.37270 -48.46955 62 ft 10 kts 16°
2026-05-04 18:00 -1.37200 -48.46937 62 ft 9 kts 44°
2026-05-04 18:00 -1.37208 -48.46895 62 ft 8 kts 150°
2026-05-04 18:01 -1.37252 -48.46922 62 ft 8 kts 228°
2026-05-04 18:01 -1.37291 -48.46962 62 ft 9 kts 225°
2026-05-04 18:01 -1.37335 -48.47006 62 ft 9 kts 225°
2026-05-04 18:02 -1.37436 -48.47109 62 ft 11 kts 225°
2026-05-04 18:02 -1.37495 -48.47168 62 ft 12 kts 225°
2026-05-04 18:02 -1.37558 -48.47232 62 ft 13 kts 225°
2026-05-04 18:02 -1.37625 -48.47300 62 ft 14 kts 225°
2026-05-04 18:03 -1.37697 -48.47373 62 ft 15 kts 225°
2026-05-04 18:03 -1.37775 -48.47451 62 ft 16 kts 225°
2026-05-04 18:03 -1.37855 -48.47533 62 ft 17 kts 225°
2026-05-04 18:03 -1.37945 -48.47612 62 ft 17 kts 203°
2026-05-04 18:04 -1.38064 -48.47638 62 ft 18 kts 185°
2026-05-04 18:04 -1.38191 -48.47648 62 ft 19 kts 184°
2026-05-04 18:04 -1.38460 -48.47667 62 ft 20 kts 184°
2026-05-04 18:05 -1.38594 -48.47676 62 ft 18 kts 184°
2026-05-04 18:05 -1.38658 -48.47731 62 ft 11 kts 269°
2026-05-04 18:05 -1.38667 -48.47802 62 ft 7 kts 224°
2026-05-04 18:05 -1.38699 -48.47811 62 ft 0 kts 184°
2026-05-04 18:06 -1.38700 -48.47811 62 ft 0 kts 184°
2026-05-04 18:06 -1.38707 -48.47812 62 ft 1 kts 184°
2026-05-04 18:07 -1.38721 -48.47813 62 ft 2 kts 184°
2026-05-04 18:07 -1.38741 -48.47814 62 ft 3 kts 184°
2026-05-04 18:07 -1.38767 -48.47816 62 ft 4 kts 184°
2026-05-04 18:07 -1.38799 -48.47819 62 ft 5 kts 184°
2026-05-04 18:08 -1.38838 -48.47821 62 ft 6 kts 184°
2026-05-04 18:08 -1.38870 -48.47833 62 ft 4 kts 240°
2026-05-04 18:08 -1.38884 -48.47864 62 ft 5 kts 237°
2026-05-04 18:08 -1.38908 -48.47894 62 ft 6 kts 231°
2026-05-04 18:09 -1.38923 -48.47913 62 ft 0 kts 231°